This demonstration page uses our WeatherBlox Daily Observations layout. Learn more.

41.55636, -103.73856

Hourly Observations for June 12, 2017

Temp ( °F °C ) Dew Point ( °F °C ) Humidity (%) Winds ( mph kmh ) Pressure ( in mb ) Visibility ( mi km ) Precip ( " mm )
12:53 am 00:53 Cloudy 70 21.1 52 11.1 53 53 ESE 7 11 29.73 1007 10 16.0934 0 0
1:53 am 01:53 Cloudy 69 20.6 52 11.1 55 55 E 9 15 29.74 1007 10 16.0934 0 0
2:53 am 02:53 Mostly Cloudy 68 20 51 10.6 55 55 E 10 17 29.74 1007 10 16.0934 0 0
3:53 am 03:53 Mostly Cloudy 64 17.8 52 11.1 65 65 E 9 15 29.73 1007 10 16.0934 0 0
4:53 am 04:53 Mostly Cloudy 62 16.7 52 11.1 70 70 NE 6 9 29.75 1008 10 16.0934 0 0
5:53 am 05:53 Cloudy 63 17.2 52 11.1 68 68 ENE 8 13 29.76 1008 10 16.0934 0 0
6:32 am 06:32 Cloudy 64 18 54 12 68 68 ENE 7 11 29.77 1008 10 16.0934 0 0
6:53 am 06:53 Cloudy 66 18.9 53 11.7 63 63 ENE 12 19 29.76 1008 10 16.0934 0 0
7:53 am 07:53 Cloudy 68 20 54 12.2 61 61 E 12 19 29.76 1008 10 16.0934 0 0
8:53 am 08:53 Cloudy 71 21.7 56 13.3 59 59 E 16 26 29.77 1008 10 16.0934 0 0
9:53 am 09:53 Cloudy 71 21.7 56 13.3 59 59 E 17 28 29.77 1008 10 16.0934 0 0
10:53 am 10:53 Sunny 77 25 57 13.9 50 50 E 17 28 29.74 1007 10 16.0934 0 0
11:53 am 11:53 Partly Cloudy 79 26.1 60 15.6 52 52 E 18 30 29.71 1006 10 16.0934 0 0
12:53 pm 12:53 Mostly Cloudy 82 27.8 61 16.1 49 49 E 20 31 29.67 1005 10 16.0934 0 0
1:53 pm 13:53 Mostly Cloudy 83 28.3 62 16.7 49 49 SE 16 26 29.64 1004 10 16.0934 0 0
2:53 pm 14:53 Mostly Cloudy 85 29.4 62 16.7 46 46 E 22 35 29.59 1002 10 16.0934 0 0
3:53 pm 15:53 Partly Cloudy 83 28.3 61 16.1 48 48 SE 17 28 29.57 1001 10 16.0934 0 0
4:41 pm 16:41 Partly Cloudy with Nearby Thunderstorms 80 26.7 62 16.7 54 54 SE 16 26 29.44 997 10 16.0934 0 0
4:53 pm 16:53 Mostly Cloudy with Nearby Thunderstorms 78 25.6 63 17.2 60 60 E 24 39 29.57 1001 10 16.0934 0 0.0254
5:04 pm 17:04 Mostly Cloudy with Light Rain 79 26 63 17 58 58 E 20 31 29.41 996 10 16.0934 0 0
5:33 pm 17:33 Cloudy with Light Thunderstorms 78 25.6 63 17.2 60 60 E 16 26 29.44 997 10 16.0934 0 0.0254
5:53 pm 17:53 Mostly Cloudy with Light Thunderstorms 74 23.3 66 18.9 76 76 NE 17 28 29.54 1000 7 11.26538 0.03 0.762
6:04 pm 18:04 Mostly Cloudy with Thunderstorms 73 23 64 18 74 74 ENE 12 19 29.47 998 10 16.0934 0 0
6:35 pm 18:35 Cloudy with Thunderstorms 68 20 62 16.7 81 81 NW 38 61 29.47 998 1.75 2.816345 0.05 1.27
6:46 pm 18:46 Cloudy with Thunderstorms 63 17.2 57 13.9 81 81 NW 36 57 29.5 999 0.75 1.207005 0.17 4.318
6:53 pm 18:53 Cloudy with Heavy Thunderstorms 60 15.6 57 13.9 90 90 N 30 48 29.49 999 1 1.60934 0.41 10.414
7:07 pm 19:07 Cloudy with Heavy Thunderstorms 66 18.9 57 13.9 73 73 E 20 31 29.53 1000 2 3.21868 0.21 5.334
8:04 pm 20:04 Partly Cloudy with Nearby Thunderstorms 66 19 N/A N/A E 29 46 29.41 996 10 16.0934 0 0
8:19 pm 20:19 Sunny 68 20 N/A N/A E 24 39 29.41 996 10 16.0934 0 0
8:53 pm 20:53 Clear 70 21 N/A N/A E 17 28 29.44 997 10 16.0934 0 0
9:53 pm 21:53 Clear 69 20.6 69 20.6 100 100 ESE 15 24 29.44 997 10 16.0934 0 0
10:53 pm 22:53 Clear 68 20 60 15.6 76 76 WNW 15 24 29.53 1000 10 16.0934 0 0
11:53 pm 23:53 Clear 66 18.9 51 10.6 59 59 NNW 26 43 29.57 1001 10 16.0934 0 0

Powered by AerisWeather